| time (UTC) | temp C | wind direction | speed KPH | gust KPH | rain 1hr cm | rain 24hr cm | rain mn cm | humidity % | barometer mb |
| 20260906142929 | 8 | 177 | 0.0 | 4.8 | 0.00 | 0.76 | 0.38 | 96 | 1012.9 |
| 20260906142423 | 8 | 185 | 0.0 | 1.6 | 0.00 | 0.76 | 0.38 | 96 | 1012.8 |
| 20260906141918 | 8 | 185 | 0.0 | 1.6 | 0.00 | 0.76 | 0.38 | 95 | 1012.7 |
| 20260906141412 | 8 | 185 | 0.0 | 1.6 | 0.00 | 0.76 | 0.38 | 95 | 1012.8 |
| 20260906140905 | 8 | 185 | 0.0 | 1.6 | 0.00 | 0.76 | 0.38 | 96 | 1012.7 |
| 20260906140404 | 8 | 185 | 0.0 | 4.8 | 0.00 | 0.76 | 0.38 | 95 | 1012.7 |
| 20260906140134 | 8 | 185 | 0.0 | 4.8 | 0.00 | 0.76 | 0.38 | 95 | 1012.7 |
| 20260906135402 | 8 | 198 | 0.0 | 1.6 | 0.00 | 0.76 | 0.38 | 95 | 1012.6 |
| 20260906135132 | 8 | 198 | 0.0 | 4.8 | 0.00 | 0.76 | 0.38 | 95 | 1012.6 |
| 20260906134632 | 8 | 198 | 1.6 | 4.8 | 0.00 | 0.76 | 0.38 | 95 | 1012.4 |
| 20260906133902 | 8 | 197 | 1.6 | 4.8 | 0.00 | 0.76 | 0.38 | 95 | 1012.4 |
| 20260906133402 | 8 | 196 | 1.6 | 4.8 | 0.00 | 0.76 | 0.38 | 95 | 1012.4 |
| 20260906133159 | 8 | 193 | 1.6 | 6.4 | 0.00 | 0.76 | 0.38 | 95 | 1012.6 |
| 20260906133152 | 8 | 192 | 1.6 | 6.4 | 0.00 | 0.76 | 0.38 | 95 | 1012.4 |
| 20260906131902 | 8 | 190 | 3.2 | 6.4 | 0.00 | 0.76 | 0.38 | 95 | 1012.6 |
| 20260906131401 | 8 | 192 | 3.2 | 6.4 | 0.00 | 0.76 | 0.38 | 95 | 1012.6 |
| 20260906130858 | 8 | 215 | 1.6 | 6.4 | 0.00 | 0.76 | 0.38 | 95 | 1012.6 |
| 20260906130358 | 8 | 232 | 0.0 | 0.0 | 0.00 | 0.76 | 0.38 | 95 | 1012.4 |
| 20260906125900 | 8 | 232 | 0.0 | 0.0 | 0.00 | 0.76 | 0.38 | 95 | 1012.4 |
| 20260906125358 | 8 | 232 | 0.0 | 0.0 | 0.00 | 0.76 | 0.38 | 95 | 1012.6 |
| 20260906124858 | 8 | 232 | 0.0 | 0.0 | 0.00 | 0.76 | 0.38 | 95 | 1012.4 |
| 20260906124358 | 8 | 232 | 0.0 | 0.0 | 0.00 | 0.76 | 0.38 | 95 | 1012.4 |
| 20260906123901 | 8 | 232 | 0.0 | 0.0 | 0.00 | 0.76 | 0.38 | 95 | 1012.4 |
| 20260906123359 | 8 | 232 | 0.0 | 3.2 | 0.03 | 0.76 | 0.38 | 95 | 1012.4 |
| 20260906122858 | 8 | 232 | 0.0 | 3.2 | 0.03 | 0.76 | 0.38 | 95 | 1012.3 |
| 20260906122351 | 8 | 233 | 0.0 | 3.2 | 0.03 | 0.76 | 0.38 | 95 | 1012.4 |
| 20260906121845 | 8 | 232 | 1.6 | 3.2 | 0.05 | 0.76 | 0.38 | 95 | 1012.6 |
| 20260906121339 | 8 | 232 | 1.6 | 3.2 | 0.05 | 0.76 | 0.38 | 95 | 1012.7 |
| 20260906120833 | 8 | 232 | 1.6 | 4.8 | 0.08 | 0.76 | 0.38 | 95 | 1012.7 |
| 20260906120327 | 8 | 233 | 1.6 | 4.8 | 0.08 | 0.76 | 0.38 | 95 | 1012.8 |
| 20260906115821 | 8 | 238 | 1.6 | 4.8 | 0.08 | 0.76 | 0.38 | 95 | 1012.8 |
| 20260906115550 | 8 | 238 | 1.6 | 4.8 | 0.08 | 0.76 | 0.38 | 95 | 1012.9 |
| 20260906114810 | 8 | 247 | 1.6 | 6.4 | 0.10 | 0.76 | 0.38 | 96 | 1012.9 |
| 20260906114302 | 8 | 249 | 1.6 | 6.4 | 0.13 | 0.76 | 0.38 | 95 | 1012.8 |
| 20260906114039 | 8 | 246 | 1.6 | 4.8 | 0.18 | 0.76 | 0.38 | 95 | 1013.0 |
| 20260906113251 | 8 | 244 | 1.6 | 4.8 | 0.18 | 0.74 | 0.36 | 96 | 1013.0 |
| 20260906112745 | 9 | 244 | 1.6 | 6.4 | 0.20 | 0.74 | 0.36 | 96 | 1013.1 |
| 20260906112239 | 9 | 244 | 1.6 | 6.4 | 0.20 | 0.71 | 0.33 | 96 | 1013.2 |
| 20260906111732 | 9 | 263 | 1.6 | 4.8 | 0.23 | 0.71 | 0.33 | 96 | 1013.2 |
| 20260906111504 | 9 | 315 | 1.6 | 4.8 | 0.23 | 0.71 | 0.33 | 96 | 1013.2 |
| 20260906110721 | 9 | 322 | 0.0 | 4.8 | 0.23 | 0.69 | 0.30 | 96 | 1013.1 |
| 20260906110215 | 9 | 156 | 0.0 | 1.6 | 0.23 | 0.69 | 0.30 | 96 | 1013.3 |
| 20260906105709 | 9 | 156 | 0.0 | 0.0 | 0.23 | 0.69 | 0.30 | 96 | 1013.3 |
| 20260906105203 | 9 | 156 | 0.0 | 3.2 | 0.23 | 0.69 | 0.30 | 96 | 1013.3 |
| 20260906104659 | 9 | 156 | 1.6 | 6.4 | 0.23 | 0.66 | 0.28 | 95 | 1013.3 |
| 20260906104151 | 9 | 159 | 1.6 | 6.4 | 0.18 | 0.61 | 0.23 | 95 | 1013.4 |
| 20260906103645 | 9 | 184 | 1.6 | 6.4 | 0.15 | 0.58 | 0.20 | 95 | 1013.6 |
| 20260906103142 | 9 | 150 | 0.0 | 3.2 | 0.13 | 0.56 | 0.18 | 96 | 1013.6 |
| 20260906102127 | 9 | 278 | 0.0 | 3.2 | 0.10 | 0.51 | 0.13 | 96 | 1013.5 |
| 20260906101621 | 9 | 279 | 0.0 | 3.2 | 0.08 | 0.48 | 0.10 | 96 | 1013.5 |
| 20260906101115 | 9 | 282 | 0.0 | 3.2 | 0.05 | 0.46 | 0.08 | 95 | 1013.4 |
| 20260906100844 | 9 | 282 | 0.0 | 3.2 | 0.05 | 0.46 | 0.08 | 95 | 1013.4 |
| 20260906100106 | 9 | 284 | 0.0 | 3.2 | 0.05 | 0.46 | 0.08 | 95 | 1013.3 |
| 20260906095830 | 9 | 284 | 1.6 | 6.4 | 0.05 | 0.46 | 0.08 | 95 | 1013.3 |
| 20260906095051 | 9 | 281 | 1.6 | 6.4 | 0.05 | 0.46 | 0.08 | 95 | 1013.3 |
| 20260906094821 | 9 | 28 | 0.0 | 4.8 | 0.03 | 0.43 | 0.05 | 95 | 1013.3 |
| 20260906094047 | 9 | 52 | 0.0 | 0.0 | 0.03 | 0.43 | 0.05 | 95 | 1013.4 |
| 20260906094039 | 9 | 49 | 0.0 | 1.6 | 0.03 | 0.43 | 0.05 | 95 | 1013.3 |
| 20260906093027 | 9 | 52 | 0.0 | 0.0 | 0.03 | 0.43 | 0.05 | 95 | 1013.2 |
| 20260906092521 | 9 | 52 | 0.0 | 0.0 | 0.03 | 0.41 | 0.03 | 95 | 1013.2 |
| 20260906092015 | 9 | 52 | 0.0 | 1.6 | 0.03 | 0.41 | 0.03 | 95 | 1013.1 |
| 20260906091509 | 9 | 52 | 0.0 | 1.6 | 0.03 | 0.41 | 0.03 | 95 | 1013.2 |
| 20260906091002 | 9 | 52 | 0.0 | 0.0 | 0.03 | 0.41 | 0.03 | 95 | 1013.2 |
| 20260906090458 | 9 | 52 | 0.0 | 0.0 | 0.03 | 0.41 | 0.03 | 95 | 1013.2 |
| 20260906085951 | 9 | 52 | 0.0 | 0.0 | 0.03 | 0.41 | 0.03 | 95 | 1013.2 |
| 20260906085445 | 9 | 52 | 0.0 | 0.0 | 0.03 | 0.41 | 0.03 | 95 | 1013.3 |
| 20260906084939 | 9 | 52 | 0.0 | 0.0 | 0.03 | 0.41 | 0.03 | 95 | 1013.3 |
| 20260906084433 | 9 | 52 | 0.0 | 1.6 | 0.03 | 0.43 | 0.03 | 95 | 1013.3 |
| 20260906084207 | 9 | 52 | 0.0 | 1.6 | 0.03 | 0.43 | 0.03 | 95 | 1013.4 |
| 20260906083428 | 9 | 52 | 0.0 | 0.0 | 0.03 | 0.43 | 0.03 | 95 | 1013.4 |
| 20260906083200 | 9 | 52 | 0.0 | 1.6 | 0.03 | 0.43 | 0.03 | 95 | 1013.5 |
| 20260906082423 | 9 | 52 | 0.0 | 1.6 | 0.00 | 0.41 | 0.00 | 95 | 1013.6 |
| 20260906081921 | 9 | 52 | 0.0 | 1.6 | 0.00 | 0.41 | 0.00 | 95 | 1013.8 |
| 20260906081423 | 9 | 52 | 0.0 | 0.0 | 0.00 | 0.41 | 0.00 | 95 | 1013.6 |
| 20260906080921 | 9 | 52 | 0.0 | 3.2 | 0.00 | 0.41 | 0.00 | 95 | 1013.6 |
| 20260906080419 | 9 | 52 | 0.0 | 3.2 | 0.00 | 0.41 | 0.00 | 95 | 1013.6 |
| 20260906075919 | 9 | 52 | 0.0 | 3.2 | 0.00 | 0.41 | 0.00 | 95 | 1013.5 |
| 20260906075419 | 9 | 52 | 0.0 | 3.2 | 0.00 | 0.41 | 0.00 | 95 | 1013.5 |
| 20260906074919 | 9 | 52 | 0.0 | 1.6 | 0.00 | 0.41 | 0.00 | 95 | 1013.5 |
| 20260906074419 | 9 | 52 | 0.0 | 4.8 | 0.00 | 0.41 | 0.00 | 95 | 1013.5 |
| 20260906073919 | 9 | 52 | 0.0 | 4.8 | 0.00 | 0.41 | 0.00 | 95 | 1013.5 |
| 20260906073419 | 9 | 42 | 0.0 | 1.6 | 0.00 | 0.41 | 0.00 | 94 | 1013.5 |
| 20260906073147 | 9 | 41 | 0.0 | 3.2 | 0.00 | 0.41 | 0.00 | 94 | 1013.2 |
| 20260906072419 | 9 | 41 | 0.0 | 4.8 | 0.00 | 0.41 | 0.00 | 94 | 1013.5 |
| 20260906071919 | 9 | 41 | 0.0 | 6.4 | 0.03 | 0.41 | 0.00 | 94 | 1013.3 |
| 20260906071419 | 9 | 38 | 0.0 | 6.4 | 0.03 | 0.41 | 0.00 | 94 | 1013.0 |
| 20260906070919 | 9 | 41 | 1.6 | 8.0 | 0.05 | 0.41 | 0.00 | 94 | 1013.2 |
| 20260906070645 | 9 | 355 | 3.2 | 8.0 | 0.08 | 0.41 | 0.00 | 94 | 1013.0 |
| 20260906065916 | 9 | 348 | 1.6 | 8.0 | 0.13 | 0.41 | 0.41 | 94 | 1013.0 |
| 20260906065417 | 9 | 350 | 0.0 | 4.8 | 0.13 | 0.41 | 0.41 | 94 | 1013.1 |
| 20260906064917 | 9 | 0 | 1.6 | 6.4 | 0.15 | 0.41 | 0.41 | 94 | 1013.3 |
| 20260906064414 | 9 | 355 | 3.2 | 14.5 | 0.18 | 0.41 | 0.41 | 94 | 1013.4 |
| 20260906063915 | 9 | 19 | 3.2 | 14.5 | 0.20 | 0.41 | 0.41 | 94 | 1013.5 |
| 20260906063414 | 9 | 339 | 1.6 | 8.0 | 0.23 | 0.41 | 0.41 | 94 | 1013.5 |
| 20260906062913 | 9 | 350 | 3.2 | 8.0 | 0.23 | 0.41 | 0.41 | 94 | 1013.6 |
| 20260906062648 | 9 | 5 | 4.8 | 14.5 | 0.28 | 0.41 | 0.41 | 94 | 1013.5 |
| 20260906061912 | 9 | 338 | 6.4 | 14.5 | 0.25 | 0.38 | 0.38 | 93 | 1013.4 |
| 20260906061411 | 9 | 342 | 4.8 | 12.9 | 0.28 | 0.38 | 0.38 | 93 | 1013.6 |
| 20260906060910 | 9 | 339 | 3.2 | 12.9 | 0.28 | 0.36 | 0.36 | 93 | 1013.9 |
| 20260906060648 | 9 | 336 | 1.6 | 6.4 | 0.28 | 0.33 | 0.33 | 93 | 1014.1 |
| 20260906060142 | 9 | 325 | 0.0 | 4.8 | 0.23 | 0.28 | 0.30 | 93 | 1014.2 |
| 20260906055408 | 9 | 327 | 1.6 | 11.3 | 0.23 | 0.28 | 0.28 | 92 | 1014.2 |
| 20260906054908 | 9 | 327 | 3.2 | 11.3 | 0.20 | 0.25 | 0.25 | 92 | 1014.3 |
| 20260906054409 | 9 | 349 | 3.2 | 11.3 | 0.18 | 0.23 | 0.23 | 92 | 1014.3 |
| 20260906053909 | 9 | 295 | 4.8 | 14.5 | 0.15 | 0.20 | 0.20 | 91 | 1014.3 |
| 20260906053639 | 9 | 304 | 6.4 | 19.3 | 0.13 | 0.18 | 0.18 | 91 | 1014.3 |
| 20260906052901 | 9 | 308 | 8.0 | 19.3 | 0.13 | 0.18 | 0.18 | 90 | 1014.3 |
| 20260906052354 | 10 | 257 | 6.4 | 16.1 | 0.08 | 0.13 | 0.15 | 90 | 1014.4 |
| 20260906051848 | 10 | 269 | 9.7 | 17.7 | 0.05 | 0.10 | 0.10 | 89 | 1014.4 |
| 20260906051343 | 10 | 236 | 11.3 | 20.9 | 0.05 | 0.10 | 0.10 | 87 | 1014.4 |
| 20260906050836 | 10 | 266 | 11.3 | 27.4 | 0.05 | 0.08 | 0.08 | 85 | 1014.5 |
| 20260906050602 | 11 | 291 | 9.7 | 27.4 | 0.03 | 0.05 | 0.05 | 84 | 1014.4 |
| 20260906045824 | 11 | 287 | 9.7 | 20.9 | 0.03 | 0.05 | 0.05 | 83 | 1014.4 |
| 20260906045318 | 11 | 244 | 9.7 | 22.5 | 0.03 | 0.05 | 0.05 | 82 | 1014.4 |
| 20260906044812 | 11 | 227 | 9.7 | 22.5 | 0.03 | 0.05 | 0.05 | 82 | 1014.3 |
| 20260906044536 | 11 | 240 | 8.0 | 17.7 | 0.03 | 0.05 | 0.05 | 83 | 1014.1 |
| 20260906043800 | 11 | 274 | 6.4 | 14.5 | 0.03 | 0.05 | 0.05 | 84 | 1014.0 |
| 20260906043254 | 11 | 283 | 6.4 | 14.5 | 0.03 | 0.05 | 0.05 | 84 | 1013.9 |
| 20260906042748 | 11 | 273 | 8.0 | 14.5 | 0.03 | 0.05 | 0.05 | 83 | 1013.8 |
| 20260906042241 | 11 | 286 | 8.0 | 14.5 | 0.03 | 0.05 | 0.05 | 82 | 1013.8 |
| 20260906041736 | 11 | 290 | 8.0 | 14.5 | 0.03 | 0.08 | 0.05 | 81 | 1013.6 |
| 20260906041230 | 11 | 298 | 8.0 | 16.1 | 0.03 | 0.08 | 0.05 | 79 | 1013.6 |
| 20260906040726 | 12 | 301 | 8.0 | 16.1 | 0.00 | 0.05 | 0.03 | 77 | 1013.5 |
| 20260906040218 | 12 | 284 | 9.7 | 17.7 | 0.00 | 0.08 | 0.03 | 74 | 1013.4 |
| 20260906035711 | 13 | 290 | 9.7 | 17.7 | 0.00 | 0.10 | 0.03 | 70 | 1013.4 |
| 20260906035206 | 13 | 287 | 9.7 | 19.3 | 0.00 | 0.10 | 0.03 | 68 | 1013.3 |
| 20260906034932 | 13 | 286 | 11.3 | 20.9 | 0.00 | 0.10 | 0.03 | 65 | 1013.3 |
| 20260906034154 | 13 | 296 | 9.7 | 20.9 | 0.00 | 0.10 | 0.03 | 64 | 1013.2 |
| 20260906033648 | 13 | 274 | 8.0 | 19.3 | 0.00 | 0.10 | 0.03 | 64 | 1013.1 |
| 20260906033142 | 13 | 281 | 8.0 | 19.3 | 0.00 | 0.10 | 0.03 | 63 | 1013.1 |
| 20260906032636 | 13 | 295 | 8.0 | 19.3 | 0.00 | 0.10 | 0.03 | 62 | 1012.9 |
| 20260906032133 | 14 | 298 | 8.0 | 16.1 | 0.00 | 0.10 | 0.03 | 62 | 1012.9 |
| 20260906031624 | 14 | 277 | 9.7 | 16.1 | 0.00 | 0.10 | 0.03 | 61 | 1012.9 |
| 20260906031347 | 14 | 324 | 9.7 | 17.7 | 0.00 | 0.10 | 0.03 | 60 | 1012.7 |
| 20260906030616 | 15 | 267 | 9.7 | 17.7 | 0.00 | 0.10 | 0.03 | 59 | 1012.7 |
| 20260906030117 | 15 | 263 | 9.7 | 20.9 | 0.00 | 0.10 | 0.03 | 59 | 1012.7 |
| 20260906025616 | 15 | 344 | 8.0 | 20.9 | 0.00 | 0.10 | 0.03 | 58 | 1012.6 |
| 20260906025115 | 15 | 260 | 6.4 | 17.7 | 0.00 | 0.10 | 0.03 | 56 | 1012.4 |
| 20260906024615 | 15 | 313 | 6.4 | 12.9 | 0.00 | 0.10 | 0.03 | 56 | 1012.3 |
| 20260906024116 | 15 | 309 | 6.4 | 12.9 | 0.00 | 0.10 | 0.03 | 56 | 1012.4 |
| 20260906023622 | 15 | 329 | 6.4 | 12.9 | 0.00 | 0.10 | 0.03 | 56 | 1012.4 |
| 20260906023347 | 15 | 313 | 6.4 | 14.5 | 0.00 | 0.10 | 0.03 | 56 | 1012.4 |
| 20260906022616 | 16 | 296 | 6.4 | 17.7 | 0.00 | 0.10 | 0.03 | 56 | 1012.3 |
| 20260906022116 | 16 | 313 | 6.4 | 17.7 | 0.00 | 0.10 | 0.03 | 55 | 1012.2 |
| 20260906021616 | 16 | 326 | 8.0 | 17.7 | 0.00 | 0.10 | 0.03 | 54 | 1012.2 |
| 20260906021115 | 16 | 307 | 8.0 | 17.7 | 0.00 | 0.10 | 0.03 | 53 | 1012.3 |
| 20260906020616 | 16 | 313 | 6.4 | 16.1 | 0.00 | 0.10 | 0.03 | 52 | 1012.3 |
| 20260906020116 | 16 | 323 | 6.4 | 16.1 | 0.00 | 0.10 | 0.03 | 52 | 1012.3 |
| 20260906015616 | 16 | 300 | 6.4 | 16.1 | 0.00 | 0.10 | 0.03 | 51 | 1012.3 |
| 20260906015116 | 16 | 339 | 6.4 | 16.1 | 0.00 | 0.10 | 0.03 | 50 | 1012.3 |
| 20260906014851 | 16 | 296 | 8.0 | 16.1 | 0.00 | 0.10 | 0.03 | 50 | 1012.2 |
| 20260906014116 | 16 | 288 | 8.0 | 16.1 | 0.00 | 0.10 | 0.03 | 49 | 1012.3 |
| 20260906013615 | 16 | 309 | 6.4 | 17.7 | 0.00 | 0.10 | 0.03 | 48 | 1012.4 |
| 20260906013115 | 17 | 338 | 8.0 | 17.7 | 0.00 | 0.10 | 0.03 | 48 | 1012.3 |
| 20260906012853 | 17 | 321 | 9.7 | 20.9 | 0.00 | 0.10 | 0.03 | 48 | 1012.3 |
| 20260906012115 | 17 | 334 | 8.0 | 20.9 | 0.00 | 0.10 | 0.03 | 48 | 1012.3 |
| 20260906011616 | 17 | 338 | 8.0 | 17.7 | 0.00 | 0.10 | 0.03 | 48 | 1012.2 |
| 20260906011355 | 17 | 330 | 8.0 | 17.7 | 0.00 | 0.10 | 0.03 | 49 | 1012.3 |
| 20260906010848 | 17 | 321 | 8.0 | 19.3 | 0.00 | 0.10 | 0.03 | 48 | 1012.2 |
| 20260906010115 | 17 | 330 | 8.0 | 20.9 | 0.00 | 0.10 | 0.03 | 48 | 1012.2 |
| 20260906005615 | 17 | 325 | 9.7 | 20.9 | 0.00 | 0.10 | 0.03 | 48 | 1012.2 |
| 20260906005116 | 17 | 355 | 9.7 | 20.9 | 0.00 | 0.10 | 0.03 | 48 | 1012.2 |
| 20260906004615 | 17 | 350 | 11.3 | 20.9 | 0.00 | 0.10 | 0.03 | 47 | 1012.1 |
| 20260906004358 | 17 | 333 | 9.7 | 19.3 | 0.00 | 0.10 | 0.03 | 48 | 1012.2 |
| 20260906003616 | 17 | 330 | 9.7 | 19.3 | 0.00 | 0.10 | 0.03 | 47 | 1012.1 |
| 20260906003116 | 17 | 344 | 9.7 | 19.3 | 0.00 | 0.10 | 0.03 | 48 | 1012.2 |
| 20260906002623 | 17 | 338 | 9.7 | 19.3 | 0.00 | 0.10 | 0.03 | 47 | 1012.2 |
| 20260906002123 | 18 | 331 | 9.7 | 22.5 | 0.00 | 0.10 | 0.03 | 47 | 1012.2 |
| 20260906001617 | 18 | 348 | 8.0 | 22.5 | 0.00 | 0.10 | 0.03 | 46 | 1012.1 |
| 20260906001110 | 18 | 322 | 8.0 | 16.1 | 0.00 | 0.10 | 0.03 | 47 | 1012.1 |
| 20260906000607 | 18 | 345 | 9.7 | 19.3 | 0.00 | 0.10 | 0.03 | 47 | 1012.2 |
| 20260906000100 | 18 | 283 | 11.3 | 22.5 | 0.00 | 0.10 | 0.03 | 47 | 1012.0 |
| 20260905235553 | 18 | 355 | 11.3 | 22.5 | 0.00 | 0.10 | 0.03 | 47 | 1012.1 |
| 20260905235046 | 18 | 301 | 9.7 | 20.9 | 0.00 | 0.10 | 0.03 | 47 | 1012.0 |
| 20260905234541 | 19 | 294 | 9.7 | 20.9 | 0.00 | 0.10 | 0.03 | 46 | 1012.0 |
| 20260905234036 | 19 | 342 | 9.7 | 19.3 | 0.00 | 0.10 | 0.03 | 44 | 1012.0 |
| 20260905233526 | 20 | 321 | 11.3 | 22.5 | 0.00 | 0.10 | 0.03 | 43 | 1012.0 |
| 20260905233022 | 20 | 296 | 11.3 | 27.4 | 0.00 | 0.10 | 0.03 | 42 | 1012.0 |
| 20260905232516 | 20 | 17 | 9.7 | 27.4 | 0.00 | 0.10 | 0.03 | 43 | 1012.0 |
| 20260905232011 | 20 | 298 | 6.4 | 17.7 | 0.00 | 0.10 | 0.03 | 42 | 1012.1 |
| 20260905231734 | 20 | 326 | 4.8 | 16.1 | 0.00 | 0.10 | 0.03 | 42 | 1012.1 |
| 20260905230953 | 20 | 5 | 3.2 | 8.0 | 0.00 | 0.10 | 0.03 | 42 | 1012.1 |
| 20260905230723 | 20 | 323 | 4.8 | 11.3 | 0.00 | 0.10 | 0.03 | 41 | 1012.1 |
| 20260905225947 | 20 | 336 | 3.2 | 14.5 | 0.00 | 0.10 | 0.03 | 41 | 1012.1 |
| 20260905225441 | 20 | 44 | 4.8 | 14.5 | 0.00 | 0.13 | 0.03 | 41 | 1012.2 |
| 20260905225203 | 20 | 5 | 4.8 | 14.5 | 0.00 | 0.13 | 0.03 | 41 | 1012.2 |
| 20260905224430 | 20 | 338 | 3.2 | 11.3 | 0.00 | 0.15 | 0.03 | 41 | 1012.1 |
| 20260905223923 | 20 | 321 | 3.2 | 11.3 | 0.00 | 0.15 | 0.03 | 41 | 1012.1 |
| 20260905223417 | 20 | 322 | 3.2 | 9.7 | 0.00 | 0.15 | 0.03 | 40 | 1012.2 |
| 20260905222911 | 20 | 84 | 1.6 | 9.7 | 0.00 | 0.15 | 0.03 | 42 | 1012.2 |
| 20260905222405 | 20 | 12 | 3.2 | 9.7 | 0.00 | 0.15 | 0.03 | 43 | 1012.3 |
| 20260905221859 | 19 | 76 | 3.2 | 12.9 | 0.00 | 0.15 | 0.03 | 44 | 1012.3 |
| 20260905221353 | 19 | 81 | 3.2 | 12.9 | 0.00 | 0.15 | 0.03 | 43 | 1012.3 |
| 20260905221112 | 19 | 69 | 1.6 | 8.0 | 0.00 | 0.15 | 0.03 | 43 | 1012.4 |
| 20260905220610 | 20 | 57 | 3.2 | 12.9 | 0.00 | 0.15 | 0.03 | 44 | 1012.2 |
| 20260905220107 | 20 | 346 | 4.8 | 12.9 | 0.00 | 0.15 | 0.03 | 43 | 1012.3 |
| 20260905215331 | 20 | 355 | 3.2 | 8.0 | 0.00 | 0.15 | 0.03 | 44 | 1012.4 |
| 20260905214821 | 19 | 346 | 1.6 | 6.4 | 0.00 | 0.15 | 0.03 | 44 | 1012.6 |
| 20260905214319 | 20 | 335 | 4.8 | 14.5 | 0.00 | 0.15 | 0.03 | 44 | 1012.6 |
| 20260905213811 | 20 | 355 | 4.8 | 14.5 | 0.00 | 0.15 | 0.03 | 42 | 1012.6 |
| 20260905213530 | 20 | 16 | 3.2 | 11.3 | 0.00 | 0.15 | 0.03 | 43 | 1012.7 |
| 20260905212803 | 20 | 34 | 3.2 | 9.7 | 0.00 | 0.15 | 0.03 | 45 | 1012.8 |
| 20260905212253 | 20 | 11 | 3.2 | 8.0 | 0.00 | 0.15 | 0.03 | 45 | 1012.7 |
| 20260905211747 | 20 | 11 | 3.2 | 8.0 | 0.00 | 0.15 | 0.03 | 44 | 1012.8 |
| 20260905211241 | 20 | 57 | 3.2 | 8.0 | 0.00 | 0.15 | 0.03 | 45 | 1012.9 |
| 20260905210735 | 20 | 63 | 1.6 | 6.4 | 0.00 | 0.15 | 0.03 | 46 | 1012.9 |
| 20260905210229 | 19 | 118 | 1.6 | 6.4 | 0.00 | 0.15 | 0.03 | 45 | 1013.0 |
| 20260905205723 | 19 | 90 | 1.6 | 11.3 | 0.00 | 0.15 | 0.03 | 46 | 1013.0 |
| 20260905205217 | 19 | 72 | 3.2 | 12.9 | 0.00 | 0.15 | 0.03 | 45 | 1013.0 |
| 20260905204711 | 19 | 17 | 4.8 | 12.9 | 0.00 | 0.15 | 0.03 | 47 | 1013.0 |
| 20260905204433 | 19 | 60 | 3.2 | 9.7 | 0.00 | 0.15 | 0.03 | 47 | 1013.0 |
| 20260905203700 | 19 | 348 | 1.6 | 8.0 | 0.00 | 0.15 | 0.03 | 46 | 1013.2 |
| 20260905203153 | 19 | 80 | 3.2 | 12.9 | 0.00 | 0.15 | 0.03 | 49 | 1013.1 |
| 20260905202646 | 18 | 96 | 1.6 | 12.9 | 0.00 | 0.15 | 0.03 | 49 | 1013.2 |
| 20260905202143 | 18 | 44 | 0.0 | 6.4 | 0.00 | 0.15 | 0.03 | 48 | 1013.2 |
| 20260905201642 | 18 | 0 | 1.6 | 9.7 | 0.00 | 0.15 | 0.03 | 50 | 1013.3 |
| 20260905201149 | 18 | 201 | 1.6 | 9.7 | 0.00 | 0.15 | 0.03 | 50 | 1013.3 |
| 20260905201143 | 18 | 199 | 1.6 | 9.7 | 0.00 | 0.15 | 0.03 | 49 | 1013.3 |
| 20260905200139 | 17 | 104 | 3.2 | 11.3 | 0.00 | 0.15 | 0.03 | 49 | 1013.4 |
| 20260905195651 | 17 | 171 | 3.2 | 12.9 | 0.00 | 0.15 | 0.03 | 50 | 1013.4 |
| 20260905195139 | 17 | 138 | 1.6 | 12.9 | 0.00 | 0.15 | 0.03 | 51 | 1013.5 |
| 20260905194639 | 17 | 131 | 1.6 | 8.0 | 0.00 | 0.15 | 0.03 | 52 | 1013.5 |
| 20260905194135 | 17 | 119 | 3.2 | 8.0 | 0.00 | 0.15 | 0.03 | 53 | 1013.6 |
| 20260905193635 | 17 | 172 | 1.6 | 8.0 | 0.00 | 0.15 | 0.03 | 54 | 1013.8 |
| 20260905193402 | 16 | 105 | 1.6 | 6.4 | 0.00 | 0.15 | 0.03 | 56 | 1013.6 |
| 20260905192636 | 16 | 99 | 1.6 | 9.7 | 0.00 | 0.15 | 0.03 | 56 | 1013.8 |
| 20260905192405 | 16 | 91 | 3.2 | 9.7 | 0.00 | 0.15 | 0.03 | 57 | 1013.9 |
| 20260905191635 | 16 | 80 | 3.2 | 9.7 | 0.00 | 0.15 | 0.03 | 55 | 1014.0 |
| 20260905191408 | 16 | 89 | 3.2 | 9.7 | 0.00 | 0.15 | 0.03 | 54 | 1014.0 |
| 20260905190635 | 16 | 96 | 1.6 | 4.8 | 0.00 | 0.15 | 0.03 | 59 | 1014.0 |
| 20260905190135 | 16 | 47 | 3.2 | 8.0 | 0.00 | 0.15 | 0.03 | 59 | 1013.9 |
| 20260905185907 | 16 | 51 | 3.2 | 11.3 | 0.00 | 0.15 | 0.03 | 59 | 1014.0 |
| 20260905185134 | 16 | 55 | 3.2 | 11.3 | 0.00 | 0.15 | 0.03 | 60 | 1014.1 |
| 20260905184628 | 16 | 114 | 3.2 | 9.7 | 0.00 | 0.15 | 0.03 | 63 | 1014.0 |
| 20260905184122 | 15 | 63 | 3.2 | 9.7 | 0.00 | 0.15 | 0.03 | 66 | 1014.0 |
| 20260905183616 | 15 | 89 | 3.2 | 11.3 | 0.00 | 0.15 | 0.03 | 65 | 1014.1 |
| 20260905183110 | 15 | 100 | 3.2 | 11.3 | 0.00 | 0.15 | 0.03 | 66 | 1014.2 |
| 20260905182604 | 15 | 78 | 1.6 | 11.3 | 0.00 | 0.15 | 0.03 | 69 | 1014.3 |
| 20260905182059 | 15 | 114 | 1.6 | 6.4 | 0.00 | 0.15 | 0.03 | 71 | 1014.4 |
| 20260905181552 | 14 | 127 | 3.2 | 9.7 | 0.00 | 0.15 | 0.03 | 71 | 1014.5 |
| 20260905181044 | 13 | 121 | 1.6 | 9.7 | 0.00 | 0.15 | 0.03 | 74 | 1014.6 |
| 20260905180819 | 12 | 96 | 1.6 | 6.4 | 0.00 | 0.15 | 0.03 | 78 | 1014.6 |
| 20260905180543 | 13 | 139 | 1.6 | 8.0 | 0.00 | 0.15 | 0.03 | 75 | 1014.7 |
| 20260905175020 | 12 | 90 | 1.6 | 6.4 | 0.00 | 0.15 | 0.03 | 81 | 1014.8 |
| 20260905174514 | 11 | 147 | 1.6 | 9.7 | 0.00 | 0.15 | 0.03 | 82 | 1014.8 |
| 20260905174009 | 11 | 148 | 1.6 | 9.7 | 0.00 | 0.15 | 0.03 | 82 | 1015.0 |
| 20260905173502 | 11 | 166 | 1.6 | 9.7 | 0.00 | 0.15 | 0.03 | 86 | 1015.0 |
| 20260905173006 | 10 | 123 | 0.0 | 4.8 | 0.00 | 0.15 | 0.03 | 88 | 1015.0 |
| 20260905173000 | 10 | 171 | 1.6 | 9.7 | 0.00 | 0.15 | 0.03 | 85 | 1015.1 |
| 20260905171944 | 10 | 116 | 1.6 | 6.4 | 0.00 | 0.15 | 0.03 | 90 | 1015.0 |
| 20260905171438 | 9 | 105 | 1.6 | 6.4 | 0.00 | 0.15 | 0.03 | 91 | 1015.0 |
| 20260905170932 | 8 | 135 | 1.6 | 6.4 | 0.00 | 0.15 | 0.03 | 91 | 1015.0 |
| 20260905170427 | 8 | 134 | 1.6 | 6.4 | 0.00 | 0.15 | 0.03 | 91 | 1015.0 |
| 20260905165920 | 8 | 136 | 0.0 | 6.4 | 0.00 | 0.15 | 0.03 | 91 | 1014.8 |
| 20260905165417 | 8 | 136 | 1.6 | 6.4 | 0.00 | 0.15 | 0.03 | 93 | 1015.0 |
| 20260905165142 | 8 | 134 | 3.2 | 9.7 | 0.00 | 0.15 | 0.03 | 93 | 1015.0 |
| 20260905164930 | 7 | 142 | 3.2 | 9.7 | 0.00 | 0.15 | 0.03 | 93 | 1014.8 |
| 20260905164920 | 8 | 134 | 3.2 | 9.7 | 0.00 | 0.15 | 0.03 | 93 | 1015.0 |
| 20260905163856 | 7 | 138 | 3.2 | 8.0 | 0.00 | 0.15 | 0.03 | 93 | 1014.8 |
| 20260905163350 | 7 | 149 | 3.2 | 9.7 | 0.00 | 0.15 | 0.03 | 93 | 1014.8 |
| 20260905162844 | 7 | 133 | 1.6 | 9.7 | 0.00 | 0.15 | 0.03 | 93 | 1015.0 |
| 20260905162837 | 7 | 148 | 1.6 | 11.3 | 0.00 | 0.15 | 0.03 | 93 | 1015.1 |
| 20260905161815 | 7 | 139 | 1.6 | 8.0 | 0.00 | 0.15 | 0.03 | 95 | 1015.0 |
| 20260905160541 | 6 | 148 | 0.0 | 4.8 | 0.00 | 0.15 | 0.03 | 95 | 1015.1 |
| 20260905155808 | 6 | 150 | 0.0 | 4.8 | 0.00 | 0.15 | 0.03 | 94 | 1015.2 |
| 20260905155305 | 6 | 153 | 0.0 | 3.2 | 0.00 | 0.15 | 0.03 | 95 | 1015.2 |
| 20260905154756 | 6 | 153 | 0.0 | 4.8 | 0.00 | 0.15 | 0.03 | 95 | 1015.2 |
| 20260905154250 | 6 | 153 | 1.6 | 4.8 | 0.00 | 0.15 | 0.03 | 95 | 1015.1 |
| 20260905153744 | 6 | 153 | 1.6 | 9.7 | 0.00 | 0.15 | 0.03 | 94 | 1015.0 |
| 20260905153244 | 6 | 157 | 1.6 | 9.7 | 0.00 | 0.15 | 0.03 | 95 | 1015.0 |
| 20260905152742 | 6 | 140 | 3.2 | 14.5 | 0.00 | 0.15 | 0.03 | 95 | 1014.8 |
| 20260905152242 | 6 | 148 | 3.2 | 14.5 | 0.00 | 0.15 | 0.03 | 95 | 1015.0 |
| 20260905152009 | 7 | 143 | 3.2 | 11.3 | 0.00 | 0.15 | 0.03 | 95 | 1015.1 |
| 20260905151512 | 7 | 142 | 3.2 | 11.3 | 0.00 | 0.15 | 0.03 | 96 | 1015.1 |
| 20260905151006 | 7 | 157 | 3.2 | 9.7 | 0.00 | 0.15 | 0.03 | 96 | 1015.1 |
| 20260905150241 | 6 | 149 | 3.2 | 8.0 | 0.00 | 0.15 | 0.03 | 96 | 1015.1 |
| 20260905145742 | 6 | 150 | 3.2 | 8.0 | 0.00 | 0.15 | 0.03 | 96 | 1015.1 |
| 20260905145507 | 6 | 157 | 3.2 | 8.0 | 0.00 | 0.15 | 0.03 | 96 | 1015.0 |
| 20260905144742 | 6 | 155 | 3.2 | 8.0 | 0.00 | 0.15 | 0.03 | 96 | 1015.0 |
| 20260905144242 | 5 | 140 | 3.2 | 9.7 | 0.00 | 0.15 | 0.03 | 96 | 1014.8 |
| 20260905143742 | 5 | 151 | 3.2 | 9.7 | 0.00 | 0.15 | 0.03 | 96 | 1014.8 |